sat.trackr.live / text

‹ back to catalog

STARLINK-35927

NORAD 66624 · 2025-271H

PAYLOAD ACTIVE UNKNOWN

§ Identity

Operator
Country
US
Launch date
2025-11-23
Launch site
AFWTR
Launch vehicle
Mass (kg)
RCS (m²)

Purposes: comms

External: N2YO · Heavens-Above · Gunter

§ Orbital elements

Epoch: 2026-05-24T23:55:36.852384Z

Period
94.10 min
Inclination
53.1597°
Eccentricity
0.0001268
Mean motion
15.30207015 rev/d
Perigee alt
474.3 km
Apogee alt
476.1 km
Semi-major
6,853.3 km
B*
4.4318e-4
RAAN
145.2078°
Arg perigee
96.5779°
Mean anomaly
263.5366°
Rev number
2,925

§ Raw data

STARLINK-359271 66624U 25271H   26144.99695431  .00012792  00000+0  44318-3 0  99972 66624  53.1597 145.2078 0001268  96.5779 263.5366 15.30207015 29256

JSON: /api/v1/satellites/66624 · /tle

For live sub-satellite position, see the globe view (requires WebGL).

§ Visibility from observer

Set your observer location to see the next 7 days of passes ≥ 10°. The values pass through the URL so the page stays shareable.

No JS? Fill the form by hand. The geolocation button needs JavaScript.